Simultaneous Nadir Overpasses (SNOs) Predictions

Prediction of SNOs between NOAA-19 and NPP Satellite Orbit:

Table of predicted SNOs for the next 14.0 days since TLE Epoch: 11/10/2014
Index Date (NOAA-19) Time (NOAA-19) Lat,Lon (NOAA-19) SZA (NOAA-19 ) Date (NPP) Time (NPP) Lat,Lon (NPP) SZA (NPP ) Distance(km) Time Diff (sec)
1 11/17/2014 14:39:58 -80.93, 90.51 77.43 11/17/2014 14:40:58 -80.93, 90.42 77.45 1.59 60
2 11/17/2014 15:30:56 80.93,-102.24 102.58 11/17/2014 15:31:43 80.93,-102.31 102.57 1.37 47
3 11/17/2014 16:22:00 -80.91, 65.46 77.47 11/17/2014 16:22:27 -80.91, 65.36 77.47 1.77 27
4 11/17/2014 17:12:58 80.91,-127.29 102.54 11/17/2014 17:13:12 80.92,-127.37 102.55 1.48 14
5 11/17/2014 18:04:02 -80.90, 40.41 77.52 11/17/2014 18:03:56 -80.90, 40.29 77.50 1.97 6
6 11/17/2014</
